Torna al catalogo

THOR ABLESTAR DEB

AttivoLEO
NORAD 254·DEBRIS·🇺🇸 United States

Lanciato Jun 29, 1961 da Cape Canaveral Space Force Station

Loading…

Prossimi Passaggi (prossime 24 ore)

TLE

AggiornatoSource: Space-Track

Epoca: Sep 13, 2026, 12:43 UTC

1 00254U 61015CF  26256.53054480  .00000984  00000-0  25575-3 0  9992
2 00254  66.7723  39.8057 0058088   2.9985 357.1462 14.53056338386517

Traccia THOR ABLESTAR DEB in tempo reale con AllMySat

Download on the App Store